{"data":{"norad_id":68874,"intl_designator":"2026-095L","name":"KUIPER-00476","alt_names":[],"object_type":"PAYLOAD","status":"ACTIVE","operator":null,"country":"US","launch_date":"2026-04-28","launch_site_code":"AFETR","launch_vehicle":null,"mission":null,"orbit_class":"UNKNOWN","rcs_meters":null,"size_class":null,"mass_kg":null,"dimensions":null,"purposes":[],"wikipedia_slug":null,"has_3d_model":false,"image_url":null,"decayed_at":null,"tle_current":{"epoch":"2026-09-20T04:00:03.000096Z","epoch_age_seconds":44314,"freshness":"FRESH","line1":"1 68874U 26095L   26263.16670139 -.00013386  00000+0 -14697-2 0  9998","line2":"2 68874  51.8965 150.7101 0011620 276.3257 253.4606 14.86583520  5627","mean_motion":14.8658352,"eccentricity":0.001162,"inclination_deg":51.8965,"raan_deg":150.7101,"arg_perigee_deg":276.3257,"mean_anomaly_deg":253.4606,"bstar":-0.0014697,"rev_number":562,"period_min":96.86640411566,"perigee_km":600.50128043406,"apogee_km":616.73850345094,"semimajor_km":6986.7568919425,"source":"CELESTRAK","updated_at":"2026-09-20T09:00:24.534643Z"}}}